• In Deutschland
  • Länderverzeichnis
  • Für 7 Tage
  • Wassertemperatur
  • Satellitenkarten
  • Wetterkarte
  • Widgets
  • user-avatar
    Anmelden

    Stündliche Wetter Valledupar

    Heute, 16 Januar, Dienstag

    Zeit Temperatur Niederschläge Wind Luftdruck Luftfeuchtigkeit
    00:00 +27°C° 0,1 mm 1 m/S 743 mmHg 85%
    01:00 +26°C° 0,1 mm 1 m/S 743 mmHg 85%
    02:00 +26°C° 0,1 mm 1 m/S 743 mmHg 85%
    03:00 +26°C° 0,1 mm 1 m/S 743 mmHg 85%
    04:00 +26°C° 0,1 mm 1 m/S 743 mmHg 85%
    05:00 +26°C° 0,1 mm 1 m/S 743 mmHg 84%
    06:00 +26°C° 0,1 mm 1 m/S 743 mmHg 83%
    07:00 +27°C° 0,1 mm 1 m/S 744 mmHg 82%
    08:00 +29°C° 0,1 mm 1 m/S 744 mmHg 74%
    09:00 +30°C° 0,1 mm 1 m/S 744 mmHg 66%
    10:00 +32°C° 0,1 mm 2 m/S 745 mmHg 58%
    11:00 +34°C° 0,1 mm 2 m/S 744 mmHg 56%
    12:00 +35°C° 0,1 mm 2 m/S 743 mmHg 53%
    13:00 +36°C° 0,1 mm 2 m/S 743 mmHg 50%
    14:00 +35°C° 0,4 mm 2 m/S 742 mmHg 53%
    15:00 +34°C° 0,4 mm 2 m/S 742 mmHg 55%
    16:00 +34°C° 0,4 mm 2 m/S 741 mmHg 57%
    17:00 +31°C° 0,2 mm 1 m/S 741 mmHg 64%
    18:00 +29°C° 0,2 mm 1 m/S 742 mmHg 71%
    19:00 +28°C° 0,2 mm 1 m/S 742 mmHg 77%
    20:00 +28°C° 0,1 mm 1 m/S 743 mmHg 79%
    21:00 +27°C° 0,1 mm 1 m/S 743 mmHg 81%
    22:00 +27°C° 0,1 mm 1 m/S 744 mmHg 84%
    23:00 +27°C° 0,1 mm 1 m/S 744 mmHg 84%

    Morgen, 17 Januar, Mittwoch

    Zeit Temperatur Niederschläge Wind Luftdruck Luftfeuchtigkeit
    00:00 +27°C° 0,1 mm 1 m/S 744 mmHg 85%
    01:00 +26°C° 0,1 mm 1 m/S 744 mmHg 86%
    02:00 +26°C° 0,3 mm 1 m/S 743 mmHg 87%
    03:00 +26°C° 0,3 mm 1 m/S 743 mmHg 87%
    04:00 +26°C° 0,3 mm 1 m/S 743 mmHg 87%
    05:00 +26°C° 0,3 mm 1 m/S 744 mmHg 87%
    06:00 +26°C° 0,3 mm 1 m/S 744 mmHg 86%
    07:00 +26°C° 0,3 mm 1 m/S 744 mmHg 85%
    08:00 +28°C° 0,4 mm 1 m/S 745 mmHg 78%
    09:00 +30°C° 0,4 mm 1 m/S 745 mmHg 70%
    10:00 +32°C° 0,4 mm 1 m/S 746 mmHg 62%
    11:00 +33°C° 0,5 mm 1 m/S 745 mmHg 59%
    12:00 +34°C° 0,5 mm 1 m/S 744 mmHg 57%
    13:00 +35°C° 0,5 mm 2 m/S 743 mmHg 54%
    14:00 +34°C° 1 mm 1 m/S 743 mmHg 56%
    15:00 +33°C° 1 mm 1 m/S 742 mmHg 59%
    16:00 +32°C° 1 mm 1 m/S 742 mmHg 61%
    17:00 +31°C° 0,6 mm 1 m/S 742 mmHg 67%
    18:00 +29°C° 0,6 mm 1 m/S 742 mmHg 74%
    19:00 +28°C° 0,6 mm 1 m/S 743 mmHg 80%
    20:00 +27°C° 0,3 mm 1 m/S 743 mmHg 81%
    21:00 +27°C° 0,3 mm 1 m/S 744 mmHg 82%
    22:00 +27°C° 0,3 mm 1 m/S 744 mmHg 83%
    23:00 +27°C° 0,2 mm 1 m/S 744 mmHg 83%

    übermorgen, 18 Januar, Donnerstag

    Zeit Temperatur Niederschläge Wind Luftdruck Luftfeuchtigkeit
    00:00 +27°C° 0,2 mm 1 m/S 744 mmHg 84%
    01:00 +27°C° 0,2 mm 1 m/S 744 mmHg 84%
    02:00 +26°C° 0,5 mm 1 m/S 743 mmHg 84%
    03:00 +26°C° 0,5 mm 1 m/S 743 mmHg 85%
    04:00 +26°C° 0,5 mm 1 m/S 743 mmHg 85%
    05:00 +26°C° 0,6 mm 1 m/S 743 mmHg 85%
    06:00 +27°C° 0,6 mm 1 m/S 744 mmHg 85%
    07:00 +27°C° 0,6 mm 1 m/S 744 mmHg 85%
    08:00 +28°C° 0,4 mm 1 m/S 745 mmHg 78%
    09:00 +30°C° 0,4 mm 1 m/S 745 mmHg 71%
    10:00 +31°C° 0,4 mm 2 m/S 746 mmHg 65%
    11:00 +32°C° 0,7 mm 2 m/S 745 mmHg 62%
    12:00 +34°C° 0,7 mm 2 m/S 744 mmHg 59%
    13:00 +35°C° 0,7 mm 2 m/S 743 mmHg 57%
    14:00 +34°C° 0,8 mm 2 m/S 743 mmHg 58%
    15:00 +34°C° 0,8 mm 2 m/S 742 mmHg 59%
    16:00 +32°C° 0,8 mm 2 m/S 742 mmHg 61%
    17:00 +31°C° 0,5 mm 1 m/S 742 mmHg 68%
    18:00 +29°C° 0,5 mm 1 m/S 742 mmHg 74%
    19:00 +27°C° 0,5 mm 1 m/S 743 mmHg 81%
    20:00 +27°C° 0,1 mm 1 m/S 743 mmHg 81%
    21:00 +27°C° 0,1 mm 1 m/S 744 mmHg 82%
    22:00 +27°C° 0,1 mm 1 m/S 744 mmHg 82%
    23:00 +27°C° 0,3 mm 1 m/S 744 mmHg 83%

    19 Januar, Freitag

    Zeit Temperatur Niederschläge Wind Luftdruck Luftfeuchtigkeit
    00:00 +27°C° 0,3 mm 1 m/S 744 mmHg 84%
    01:00 +27°C° 0,3 mm 1 m/S 743 mmHg 84%
    02:00 +27°C° 0,6 mm 1 m/S 743 mmHg 85%
    03:00 +27°C° 0,6 mm 1 m/S 743 mmHg 85%
    04:00 +27°C° 0,6 mm 1 m/S 743 mmHg 86%
    05:00 +27°C° 0,4 mm 1 m/S 743 mmHg 85%
    06:00 +27°C° 0,4 mm 1 m/S 744 mmHg 85%
    07:00 +27°C° 0,4 mm 1 m/S 744 mmHg 84%
    08:00 +29°C° 0,2 mm 1 m/S 745 mmHg 76%
    09:00 +30°C° 0,2 mm 2 m/S 745 mmHg 69%
    10:00 +32°C° 0,2 mm 2 m/S 745 mmHg 62%
    11:00 +34°C° 0,1 mm 2 m/S 745 mmHg 58%
    12:00 +35°C° 0,1 mm 2 m/S 744 mmHg 55%
    13:00 +35°C° 0,1 mm 2 m/S 743 mmHg 52%
    14:00 +35°C° 0,2 mm 2 m/S 742 mmHg 53%
    15:00 +35°C° 0,2 mm 2 m/S 742 mmHg 55%
    16:00 +34°C° 0,2 mm 2 m/S 741 mmHg 56%
    17:00 +31°C° 0,1 mm 2 m/S 741 mmHg 63%
    18:00 +30°C° 0,1 mm 2 m/S 742 mmHg 70%
    19:00 +28°C° 0,1 mm 1 m/S 742 mmHg 76%
    20:00 +28°C° 0 mm 1 m/S 743 mmHg 78%
    21:00 +28°C° 0 mm 2 m/S 743 mmHg 80%
    22:00 +27°C° 0 mm 2 m/S 744 mmHg 82%
    23:00 +27°C° 0,2 mm 2 m/S 743 mmHg 82%

    20 Januar, Samstag

    Zeit Temperatur Niederschläge Wind Luftdruck Luftfeuchtigkeit
    00:00 +27°C° 0,2 mm 2 m/S 743 mmHg 83%
    01:00 +27°C° 0,2 mm 2 m/S 743 mmHg 83%
    02:00 +27°C° 0,4 mm 2 m/S 743 mmHg 84%
    03:00 +27°C° 0,4 mm 2 m/S 742 mmHg 84%
    04:00 +27°C° 0,4 mm 2 m/S 742 mmHg 85%
    05:00 +27°C° 0,3 mm 1 m/S 743 mmHg 84%
    06:00 +27°C° 0,3 mm 1 m/S 743 mmHg 83%
    07:00 +27°C° 0,3 mm 1 m/S 744 mmHg 82%
    08:00 +29°C° 0,1 mm 1 m/S 744 mmHg 75%
    09:00 +30°C° 0,1 mm 2 m/S 744 mmHg 67%
    10:00 +32°C° 0,1 mm 2 m/S 745 mmHg 60%
    11:00 +34°C° 0,2 mm 2 m/S 744 mmHg 57%
    12:00 +35°C° 0,2 mm 2 m/S 743 mmHg 54%
    13:00 +36°C° 0,2 mm 2 m/S 742 mmHg 51%
    14:00 +35°C° 0,3 mm 2 m/S 742 mmHg 52%
    15:00 +35°C° 0,3 mm 2 m/S 741 mmHg 54%
    16:00 +34°C° 0,3 mm 2 m/S 741 mmHg 55%
    17:00 +32°C° 0,1 mm 2 m/S 741 mmHg 62%
    18:00 +30°C° 0,1 mm 2 m/S 741 mmHg 68%
    19:00 +29°C° 0,1 mm 2 m/S 742 mmHg 74%
    20:00 +28°C° 0 mm 2 m/S 742 mmHg 76%
    21:00 +28°C° 0 mm 2 m/S 742 mmHg 78%
    22:00 +28°C° 0 mm 2 m/S 743 mmHg 80%
    23:00 +27°C° 0,1 mm 2 m/S 743 mmHg 80%

    21 Januar, Sonntag

    Zeit Temperatur Niederschläge Wind Luftdruck Luftfeuchtigkeit
    00:00 +27°C° 0,1 mm 2 m/S 742 mmHg 81%
    01:00 +27°C° 0,1 mm 2 m/S 742 mmHg 82%
    02:00 +27°C° 0,1 mm 2 m/S 742 mmHg 82%
    03:00 +27°C° 0,1 mm 1 m/S 742 mmHg 82%
    04:00 +27°C° 0,1 mm 1 m/S 741 mmHg 82%
    05:00 +27°C° 0,1 mm 1 m/S 742 mmHg 81%
    06:00 +27°C° 0,1 mm 1 m/S 742 mmHg 81%
    07:00 +27°C° 0,1 mm 1 m/S 743 mmHg 80%
    08:00 +29°C° 0 mm 1 m/S 743 mmHg 70%
    09:00 +32°C° 0 mm 2 m/S 743 mmHg 60%
    10:00 +35°C° 0 mm 2 m/S 744 mmHg 51%
    11:00 +36°C° 0 mm 2 m/S 743 mmHg 48%
    12:00 +36°C° 0 mm 2 m/S 742 mmHg 45%
    13:00 +37°C° 0 mm 2 m/S 741 mmHg 42%
    14:00 +37°C° 0,2 mm 2 m/S 741 mmHg 43%
    15:00 +36°C° 0,2 mm 2 m/S 740 mmHg 45%
    16:00 +36°C° 0,2 mm 2 m/S 740 mmHg 46%
    17:00 +34°C° 0,1 mm 2 m/S 740 mmHg 54%
    18:00 +31°C° 0,1 mm 2 m/S 740 mmHg 62%
    19:00 +29°C° 0,1 mm 2 m/S 741 mmHg 71%
    20:00 +28°C° 0 mm 2 m/S 741 mmHg 73%
    21:00 +28°C° 0 mm 2 m/S 742 mmHg 75%
    22:00 +27°C° 0 mm 2 m/S 742 mmHg 78%
    23:00 +27°C° 0,1 mm 2 m/S 742 mmHg 78%
    Mehr zeigen